Regional Weather Roundup
Issued by NWS Midland/Odessa, TX

Skip options and go directly to product.
Home | Oldest Version | Previous Version | Current Version | All | Text Only | Save Text | Print | Product List | Glossary On

Skip product version selection by date and time.   
689
ASUS44 KMAF 280310
RWRMAF
MIDLAND AREA WEATHER ROUNDUP
NATIONAL WEATHER SERVICE MIDLAND TX
1000 PM CDT MON APR 27 2015

...IN SOUTHWEST TEXAS AND SOUTHEAST NEW MEXICO...

CITY           SKY/WX    TMP DP  RH WIND       PRES   REMARKS
ALPINE         MOCLDY    48  36  63 N22G28    30.18R
ANDREWS        CLOUDY    44  36  73 N22       30.09R WCI  35
ARTESIA        CLOUDY    48  36  61 N26G38    30.20R
BIG SPRING     CLOUDY    49  44  83 NW18      30.04R
CARLSBAD       CLOUDY    50  34  54 N23G29    30.17R
DRYDEN           N/A     63  39  41 NW31G45   29.93R
FORT STOCKTON  MOCLDY    52  35  52 N22G30    30.11R
GUAD PASS      MOCLDY    42  32  67 NE41      30.13R WCI  30
HOBBS          MOCLDY    41  37  87 N20       30.13R WCI  32
MARFA          CLEAR    N/A N/A N/A N26       30.10R
MIDLAND AIRPK  MOCLDY    47  39  72 NW22G29   30.07R WCI  40
MIDLAND INTL   CLOUDY    47  37  68 N28G36    30.06R WCI  38
ODESSA         CLOUDY    47  36  65 N21G33    30.08R WCI  39
PECOS          CLOUDY    52  34  49 NW25G32   30.15R
PRESIDIO       FAIR      64  38  37 MISG      29.97R
SEMINOLE       CLOUDY    43  37  78 N16G28    30.10R WCI  35
SNYDER         DRIZZLE   49  47  93 NW12      29.98R
WINK           MOCLDY    48  33  56 N24G31    30.11R
$$
...OTHER STATIONS IN TEXAS...

CITY           SKY/WX    TMP DP  RH WIND       PRES   REMARKS
ABILENE        MOCLDY    57  51  80 NW20      29.91R
AMARILLO       CLOUDY    39  38  96 N25G32    30.15R FOG     WCI  28
AUSTIN         PTCLDY    66  62  87 CALM      29.77R
BROWNSVILLE    MOCLDY    77  74  90 N5        29.69R
CORPUS CHRISTI PTCLDY    76  72  87 E8        29.72R
DALLAS FTW     MOCLDY    57  55  93 N18       29.84R
DEL RIO        CLEAR     72  46  39 NW20G31   29.85R
EL PASO        PTCLDY    55  34  45 E14       30.10R
HOUSTON INT    CLOUDY    70  65  84 NE7       29.76R
LUBBOCK        RAIN      43  41  93 N21G28    30.05R WCI  34
SAN ANGELO     CLEAR     60  45  57 NW16G23   29.94R
SAN ANTONIO    PTCLDY    75  58  55 NE7       29.78R
WACO           MOCLDY    62  61  96 NW12      29.83R
WICHITA FALLS  NOT AVBL
$$
...OTHER LOCATIONS IN NEW MEXICO...

CITY           SKY/WX    TMP DP  RH WIND       PRES   REMARKS
ALAMAGORDO     CLOUDY    55  28  35 NE12      30.10R
ALBUQUERQUE    CLOUDY    52  34  50 E16       30.18R
CANNON AFB     LGT RAIN  39  36  91 NE24G30   30.15R WCI  28
CLOVIS         MOCLDY    39  36  87 N30G36    30.16R WCI  27
HOLLOMAN AFB   MOCLDY    56  31  39 NE18      30.10R
ROSWELL        CLOUDY    47  35  63 N20       30.20R WCI  40
RUIDOSO        CLOUDY    37  32  81 CALM      30.23S
SANTA FE       MOCLDY    46  32  58 S9        30.16R
TRUTH OR CONSE CLOUDY    54  33  45 E12G21    30.15R
TUCUMCARI      CLOUDY    42  38  85 NE13      30.18R WCI  35
$$

USA.gov is the U.S. government's official web portal to all federal, state and local government web resources and services.